Retour au catalogue

USA 369

ActifMilitaireVLEO
NORAD 59829·PAYLOAD·🇺🇸 United States

Lancé May 22, 2024 depuis Vandenberg Space Force Base

Loading…

Prochains Passages (prochaines 24 heures)

TLE

PériméSource: Mike McCants

Époque: Aug 17, 2026, 22:06 UTC

1 59829U 24096R   26229.92115996 0.00000000  00000-0  00000-0 0    00
2 59829  70.0176 157.0983 0003000  53.4135 306.5865 14.96714006    04

Suivez USA 369 en temps réel avec AllMySat

Download on the App Store